Time,TemperatureF,DewpointF,PressureIn,WindDirection,WindDirectionDegrees,WindSpeedMPH,WindSpeedGustMPH,Humidity,HourlyPrecipIn,Conditions,Clouds,dailyrainin,SoftwareType,DateUTC
2013-10-06 00:13:00,62.0,60.0,29.85,West,270,2.0,5.0,92,0.00,,,0.04,,2013-10-06 05:13:00,
2013-10-06 00:22:00,62.0,60.0,29.85,West,270,2.0,5.0,92,0.00,,,0.04,,2013-10-06 05:22:00,
2013-10-06 00:52:00,59.0,53.0,29.87,West,265,2.0,7.0,81,0.00,,,0.04,,2013-10-06 05:52:00,
2013-10-06 01:12:00,58.0,53.0,29.85,NW,307,3.0,7.0,82,0.00,,,0.04,,2013-10-06 06:12:00,
2013-10-06 01:22:00,58.0,53.0,29.85,NW,307,3.0,7.0,82,0.00,,,0.04,,2013-10-06 06:22:00,
2013-10-06 01:52:00,57.0,52.0,29.87,WSW,241,2.0,7.0,83,0.00,,,0.04,,2013-10-06 06:52:00,
2013-10-06 02:11:00,57.0,51.0,29.86,West,268,1.0,7.0,81,0.00,,,0.04,,2013-10-06 07:11:00,
2013-10-06 02:22:00,57.0,51.0,29.86,West,268,1.0,7.0,81,0.00,,,0.04,,2013-10-06 07:22:00,
2013-10-06 02:52:00,56.0,51.0,29.85,West,268,3.0,7.0,82,0.00,,,0.04,,2013-10-06 07:52:00,
2013-10-06 03:11:00,55.0,51.0,29.87,West,264,0.0,6.0,85,0.00,,,0.04,,2013-10-06 08:11:00,
2013-10-06 03:22:00,55.0,51.0,29.87,West,264,0.0,6.0,85,0.00,,,0.04,,2013-10-06 08:22:00,
2013-10-06 03:53:00,56.0,52.0,29.86,WSW,255,0.0,3.0,87,0.00,,,0.04,,2013-10-06 08:53:00,
2013-10-06 04:01:00,56.0,52.0,29.86,WSW,255,0.0,3.0,87,0.00,,,0.04,,2013-10-06 09:01:00,
2013-10-06 04:22:00,56.0,52.0,29.86,SW,220,0.0,6.0,87,0.00,,,0.04,,2013-10-06 09:22:00,
2013-10-06 04:33:00,56.0,52.0,29.86,SW,220,0.0,6.0,87,0.00,,,0.04,,2013-10-06 09:33:00,
2013-10-06 04:53:00,55.0,50.0,29.85,WSW,251,1.0,4.0,84,0.00,,,0.04,,2013-10-06 09:53:00,
2013-10-06 05:03:00,55.0,50.0,29.85,WSW,251,1.0,4.0,84,0.00,,,0.04,,2013-10-06 10:03:00,
2013-10-06 05:23:00,55.0,50.0,29.85,WSW,239,0.0,3.0,83,0.00,,,0.04,,2013-10-06 10:23:00,
2013-10-06 05:32:00,55.0,50.0,29.85,WSW,239,0.0,3.0,83,0.00,,,0.04,,2013-10-06 10:32:00,
2013-10-06 05:53:00,55.0,50.0,29.84,WSW,243,0.0,4.0,84,0.00,,,0.04,,2013-10-06 10:53:00,
2013-10-06 06:02:00,55.0,50.0,29.84,WSW,243,0.0,4.0,84,0.00,,,0.04,,2013-10-06 11:02:00,
2013-10-06 06:21:00,54.0,49.0,29.84,WSW,245,0.0,1.0,84,0.00,,,0.04,,2013-10-06 11:21:00,
2013-10-06 06:33:00,54.0,49.0,29.84,WSW,245,0.0,1.0,84,0.00,,,0.04,,2013-10-06 11:33:00,
2013-10-06 06:52:00,54.0,49.0,29.84,WSW,245,0.0,1.0,84,0.00,,,0.04,,2013-10-06 11:52:00,
2013-10-06 07:12:00,53.0,49.0,29.84,WSW,239,2.0,7.0,86,0.00,,,0.04,,2013-10-06 12:12:00,
2013-10-06 07:22:00,53.0,49.0,29.84,WSW,239,2.0,7.0,86,0.00,,,0.04,,2013-10-06 12:22:00,
2013-10-06 07:52:00,53.0,50.0,29.85,WSW,248,0.0,2.0,88,0.01,,,0.05,,2013-10-06 12:52:00,
2013-10-06 08:11:00,52.0,49.0,29.84,WSW,248,0.0,3.0,89,0.01,,,0.05,,2013-10-06 13:11:00,
2013-10-06 08:21:00,52.0,49.0,29.84,WSW,248,0.0,3.0,89,0.01,,,0.05,,2013-10-06 13:21:00,
2013-10-06 08:52:00,52.0,49.0,29.83,SW,224,0.0,3.0,89,-99.99,,,-99.99,,2013-10-06 13:52:00,
2013-10-06 09:22:00,52.0,49.0,29.84,SSW,206,2.0,6.0,88,0.00,,,0.05,,2013-10-06 14:22:00,
2013-10-06 09:42:00,53.0,49.0,29.84,SSW,213,1.0,8.0,86,0.00,,,0.05,,2013-10-06 14:42:00,
2013-10-06 09:52:00,53.0,49.0,29.84,SSW,213,1.0,8.0,86,0.00,,,0.05,,2013-10-06 14:52:00,
2013-10-06 10:22:00,54.0,49.0,29.83,SSW,210,1.0,6.0,82,0.00,,,0.05,,2013-10-06 15:22:00,
2013-10-06 10:54:00,57.0,48.0,29.83,WSW,238,1.0,6.0,73,0.00,,,0.05,,2013-10-06 15:54:00,
2013-10-06 11:12:00,58.0,45.0,29.83,SSW,206,1.0,9.0,63,0.00,,,0.05,,2013-10-06 16:12:00,
2013-10-06 11:23:00,58.0,45.0,29.83,SSW,206,1.0,9.0,63,0.00,,,0.05,,2013-10-06 16:23:00,
2013-10-06 11:53:00,60.0,41.0,29.81,WSW,239,5.0,12.0,50,0.00,,,0.05,,2013-10-06 16:53:00,
2013-10-06 12:02:00,60.0,41.0,29.81,WSW,239,5.0,12.0,50,0.00,,,0.05,,2013-10-06 17:02:00,
2013-10-06 12:22:00,61.0,42.0,29.80,SSW,200,4.0,15.0,49,0.00,,,0.05,,2013-10-06 17:22:00,
2013-10-06 12:33:00,61.0,42.0,29.80,SSW,200,4.0,15.0,49,0.00,,,0.05,,2013-10-06 17:33:00,
2013-10-06 12:42:00,61.0,42.0,29.80,SSW,200,4.0,15.0,49,0.00,,,0.05,,2013-10-06 17:42:00,
2013-10-06 12:52:00,62.0,43.0,29.80,WSW,238,2.0,13.0,50,0.00,,,0.05,,2013-10-06 17:52:00,
2013-10-06 13:02:00,62.0,43.0,29.80,WSW,238,2.0,13.0,50,0.00,,,0.05,,2013-10-06 18:02:00,
2013-10-06 13:21:00,63.0,45.0,29.79,SW,225,5.0,12.0,51,0.00,,,0.05,,2013-10-06 18:21:00,
2013-10-06 13:32:00,63.0,45.0,29.79,SW,225,5.0,12.0,51,0.00,,,0.05,,2013-10-06 18:32:00,
2013-10-06 13:52:00,60.0,43.0,29.79,SW,223,4.0,16.0,53,0.00,,,0.05,,2013-10-06 18:52:00,
2013-10-06 14:01:00,60.0,43.0,29.79,SW,223,4.0,16.0,53,0.00,,,0.05,,2013-10-06 19:01:00,
2013-10-06 14:22:00,60.0,43.0,29.79,SSW,206,6.0,18.0,53,0.00,,,0.03,,2013-10-06 19:22:00,
2013-10-06 14:32:00,60.0,43.0,29.79,SSW,206,6.0,18.0,53,0.00,,,0.03,,2013-10-06 19:32:00,
2013-10-06 14:42:00,60.0,43.0,29.79,SSW,206,6.0,18.0,53,0.00,,,0.03,,2013-10-06 19:42:00,
2013-10-06 14:53:00,59.0,42.0,29.80,WSW,253,5.0,17.0,53,0.00,,,0.03,,2013-10-06 19:53:00,
2013-10-06 15:02:00,59.0,42.0,29.80,WSW,253,5.0,17.0,53,0.00,,,0.03,,2013-10-06 20:02:00,
2013-10-06 15:11:00,59.0,42.0,29.80,WSW,253,5.0,17.0,53,0.00,,,0.03,,2013-10-06 20:11:00,
2013-10-06 15:22:00,59.0,42.0,29.80,WSW,253,5.0,17.0,53,0.00,,,0.03,,2013-10-06 20:22:00,
2013-10-06 15:52:00,59.0,41.0,29.81,WNW,284,6.0,15.0,52,0.00,,,0.03,,2013-10-06 20:52:00,
2013-10-06 16:12:00,58.0,40.0,29.81,West,270,6.0,16.0,51,0.00,,,0.03,,2013-10-06 21:12:00,
2013-10-06 16:22:00,58.0,40.0,29.81,West,270,6.0,16.0,51,0.00,,,0.03,,2013-10-06 21:22:00,
2013-10-06 16:55:00,56.0,40.0,29.82,West,265,4.0,17.0,55,0.00,,,0.03,,2013-10-06 21:55:00,
2013-10-06 17:13:00,56.0,40.0,29.83,WSW,243,7.0,13.0,54,0.00,,,0.03,,2013-10-06 22:13:00,
2013-10-06 17:24:00,56.0,40.0,29.83,WSW,243,7.0,13.0,54,0.00,,,0.03,,2013-10-06 22:24:00,
2013-10-06 17:54:00,54.0,39.0,29.83,West,263,4.0,15.0,56,0.00,,,0.03,,2013-10-06 22:54:00,
2013-10-06 18:12:00,54.0,40.0,29.85,WSW,249,5.0,15.0,58,0.00,,,0.03,,2013-10-06 23:12:00,
2013-10-06 18:22:00,54.0,40.0,29.85,WSW,249,5.0,15.0,58,0.00,,,0.03,,2013-10-06 23:22:00,
2013-10-06 18:42:00,54.0,40.0,29.85,WSW,254,3.0,11.0,60,0.00,,,0.02,,2013-10-06 23:42:00,
2013-10-06 18:53:00,54.0,40.0,29.85,WSW,254,3.0,11.0,60,0.00,,,0.02,,2013-10-06 23:53:00,
2013-10-06 19:22:00,53.0,40.0,29.85,WSW,241,3.0,11.0,61,0.00,,,0.02,,2013-10-07 00:22:00,
2013-10-06 19:42:00,53.0,40.0,29.86,WSW,239,3.0,16.0,61,0.00,,,0.02,,2013-10-07 00:42:00,
2013-10-06 19:52:00,52.0,40.0,29.86,SSW,206,3.0,9.0,63,0.00,,,0.02,,2013-10-07 00:52:00,
2013-10-06 20:02:00,52.0,40.0,29.86,SSW,206,3.0,9.0,63,0.00,,,0.02,,2013-10-07 01:02:00,
2013-10-06 20:22:00,52.0,41.0,29.87,WSW,258,2.0,9.0,65,0.00,,,0.02,,2013-10-07 01:22:00,
2013-10-06 20:32:00,52.0,41.0,29.87,WSW,258,2.0,9.0,65,0.00,,,0.02,,2013-10-07 01:32:00,
2013-10-06 20:53:00,52.0,41.0,29.87,WSW,258,2.0,9.0,65,0.00,,,0.02,,2013-10-07 01:53:00,
2013-10-06 21:02:00,52.0,41.0,29.87,WSW,258,2.0,9.0,65,0.00,,,0.02,,2013-10-07 02:02:00,
2013-10-06 21:22:00,50.0,41.0,29.86,WSW,256,1.0,3.0,71,0.00,,,0.02,,2013-10-07 02:22:00,
2013-10-06 21:32:00,50.0,41.0,29.86,WSW,256,1.0,3.0,71,0.00,,,0.02,,2013-10-07 02:32:00,
2013-10-06 21:42:00,50.0,41.0,29.86,WSW,256,1.0,3.0,71,0.00,,,0.02,,2013-10-07 02:42:00,
2013-10-06 21:53:00,50.0,42.0,29.86,SSW,200,0.0,3.0,73,0.00,,,0.02,,2013-10-07 02:53:00,
2013-10-06 22:02:00,50.0,42.0,29.86,SSW,200,0.0,3.0,73,0.00,,,0.02,,2013-10-07 03:02:00,
2013-10-06 22:12:00,50.0,42.0,29.86,SSW,200,0.0,3.0,73,0.00,,,0.02,,2013-10-07 03:12:00,
2013-10-06 22:22:00,50.0,42.0,29.86,SSW,200,0.0,3.0,73,0.00,,,0.02,,2013-10-07 03:22:00,
2013-10-06 22:54:00,50.0,42.0,29.86,SSW,201,1.0,5.0,75,0.00,,,0.01,,2013-10-07 03:54:00,
2013-10-06 23:13:00,51.0,43.0,29.85,SW,229,2.0,6.0,73,0.00,,,0.01,,2013-10-07 04:13:00,
2013-10-06 23:24:00,51.0,43.0,29.85,SW,229,2.0,6.0,73,0.00,,,0.01,,2013-10-07 04:24:00,
2013-10-06 23:53:00,51.0,43.0,29.85,SSE,166,3.0,7.0,73,0.00,,,0.01,,2013-10-07 04:53:00,